Capitol Logistics 790


YSSY
Kingsford Smith International Airport
Sydney, AU
WSSS
Changi International Airport
Singapore, SG

Route Details

Aircraft Information
Primary: Boeing 747-400BCF
Backup: Boeing 777-200LRF
Route Data
Distance: 3402nm
Sched. Duration: 7h 29m
Avg. Duration: 7h 45m (+15m)
Times Flown: 1
Recm'd Route: KADOM A576 PKS/N0482F360 A576 AS A587 ONOXA/N0482F380 G326 BLI M635 SURGA
Planned Altitude: 34,000ft
Origin Wx: YSSY 190130Z 16020KT 9999 FEW025 BKN040 22/15 Q1017
Dest. Wx: WSSS 190130Z 35008KT 330V030 9000 FEW018 BKN300 27/23 Q1012 NOSIG
Notes:

Financial History
Total Freight: 128,386lbs
Average Load: 128,386lbs/flt
Fuel Used: 141,031lbs
Avg. Fuel Used: 141,031lbs/flt
Fuel Expense: $112,825
Avg. Fuel Expense: $112,825
Avg. Fuel Cost: $0.80/lbs
Total Gross Income: $537,937
Pilot Pay: $229
Total Expenses: $58,149
Total Revenue: $365,111
Average Revenue: $537,937.31